Seattle, WA
on Tuesday, January 15, 2013

Tuesday
Previous Day Next Day
Daily Summary
 ActualAverageRecord
Temperature
Mean Temperature °F 42°F  
Max Temperature 44°F 47°F 58°F (1974)
Min Temperature 31°F 37°F 15°F (1950)
Degree Days
Heating Degree Days 27 23  
Month to date heating degree days 406 353  
Since 1 July heating degree days 2157 2291  
Cooling Degree Days 0 0  
Month to date cooling degree days 0 0  
Year to date cooling degree days 0 0  
Moisture
Dew Point 29°F   
Average Humidity 70    
Maximum Humidity 82    
Minimum Humidity 57    
Precipitation
Precipitation 0.00 in 0.19 in 1.68 in (1996)
Month to date precipitation 2.71 2.83  
Year to date precipitation 2.71 2.83  
Snow
Snow 0.00 in in 3.60 in (1969)
Month to date snowfall T  
Since 1 July snowfall 0.6  
Snow Depth 0.00 in   
Wind
Wind Speed 5 mph   
Max Wind Speed 12 mph   
Max Gust Speed 14 mph   
Visibility 10 miles   
Events     

Key: T is trace of precipitation, MM is missing value
Source: NWS Daily Summary
Time(PST)TemperatureDew PointHumidity Pressure Visibility Wind DirectionWind SpeedGust SpeedPrecipitationEvents Conditions
12:53 AM 36.0°F 28.9°F 76% 30.60 in 10.0 miles NNE 4.6 mph - N/A   Overcast
1:53 AM 36.0°F 28.9°F 76% 30.61 in 10.0 miles North 3.5 mph - N/A   Overcast
2:35 AM 35.6°F 30.2°F 81% 30.61 in 10.0 miles North 4.6 mph - N/A   Overcast
2:53 AM 35.6°F 30.2°F 81% 30.61 in 10.0 miles Calm Calm - N/A   Overcast
3:53 AM 35.1°F 28.9°F 78% 30.65 in 10.0 miles Calm Calm - N/A   Overcast
4:53 AM 34.0°F 28.9°F 82% 30.64 in 10.0 miles Calm Calm - N/A   Overcast
5:53 AM 35.1°F 28.9°F 78% 30.65 in 10.0 miles NNE 4.6 mph - N/A   Overcast
6:53 AM 34.0°F 28.9°F 82% 30.67 in 10.0 miles NNE 4.6 mph - N/A   Mostly Cloudy
7:53 AM 34.0°F 28.9°F 82% 30.69 in 10.0 miles North 3.5 mph - N/A   Mostly Cloudy
8:53 AM 36.0°F 30.9°F 82% 30.71 in 10.0 miles Calm Calm - N/A   Scattered Clouds
9:53 AM 39.0°F 30.0°F 70% 30.71 in 10.0 miles NE 3.5 mph - N/A   Partly Cloudy
10:53 AM 39.9°F 30.9°F 70% 30.72 in 10.0 miles North 6.9 mph - N/A   Partly Cloudy
11:53 AM 42.1°F 30.9°F 65% 30.71 in 10.0 miles North 6.9 mph - N/A   Scattered Clouds
12:43 PM 42.8°F 30.2°F 61% 30.67 in 10.0 miles Variable 4.6 mph - N/A   Mostly Cloudy
12:53 PM 43.0°F 30.0°F 60% 30.71 in 10.0 miles NNE 9.2 mph - N/A   Mostly Cloudy
1:53 PM 42.1°F 30.0°F 62% 30.71 in 10.0 miles NNE 4.6 mph - N/A   Mostly Cloudy
2:53 PM 43.0°F 30.0°F 60% 30.71 in 10.0 miles North 6.9 mph - N/A   Scattered Clouds
3:53 PM 42.1°F 28.9°F 60% 30.71 in 10.0 miles NNW 6.9 mph - N/A   Scattered Clouds
4:53 PM 37.0°F 28.0°F 70% 30.70 in 10.0 miles NNW 6.9 mph - N/A   Partly Cloudy
5:53 PM 34.0°F 28.0°F 79% 30.70 in 10.0 miles NNW 5.8 mph - N/A   Partly Cloudy
6:53 PM 36.0°F 28.0°F 73% 30.70 in 10.0 miles North 9.2 mph - N/A   Clear
7:53 PM 37.0°F 28.9°F 73% 30.71 in 10.0 miles NNE 10.4 mph - N/A   Clear
8:53 PM 35.1°F 28.9°F 78% 30.71 in 10.0 miles NNE 9.2 mph - N/A   Clear
9:53 PM 35.1°F 28.9°F 78% 30.70 in 10.0 miles NNE 8.1 mph - N/A   Clear
10:53 PM 32.0°F 27.0°F 82% 30.69 in 10.0 miles North 5.8 mph - N/A   Clear
11:53 PM 33.1°F 28.9°F 85% 30.69 in 10.0 miles NNE 4.6 mph - N/A   Clear
Moon Phase
Jan. 15 Jan. 18 Jan. 26 Feb. 03 Feb. 10
Sunrise:07:51 AM (PST) Moon Rise:09:38 AM (PST)1/15
Sunset:04:46 PM (PST) Moon Set:10:06 PM (PST)1/15

Copyright © 2014 The Weather Underground, Inc.